TimeAKST,TemperatureF,Dew PointF,Humidity,Sea Level PressureIn,VisibilityMPH,Wind Direction,Wind SpeedMPH,Gust SpeedMPH,PrecipitationIn,Events,Conditions,WindDirDegrees,DateUTC
12:53 AM,28.0,19.9,72,29.93,10.0,NE,10.4,-,N/A,,Mostly Cloudy,50,2014-02-26 09:53:00
1:53 AM,30.0,19.9,66,29.91,10.0,NNE,17.3,-,N/A,,Clear,30,2014-02-26 10:53:00
2:53 AM,28.0,19.9,72,29.88,10.0,NNE,20.7,-,N/A,Snow,Low Drifting Snow,30,2014-02-26 11:53:00
3:53 AM,30.0,21.9,72,29.85,9.0,NE,21.9,29.9,N/A,Snow,Low Drifting Snow,40,2014-02-26 12:53:00
4:53 AM,30.0,21.0,69,29.81,10.0,NE,24.2,-,N/A,Snow,Low Drifting Snow,50,2014-02-26 13:53:00
5:53 AM,30.9,21.0,67,29.77,9.0,NE,25.3,33.4,0.00,Snow,Low Drifting Snow,50,2014-02-26 14:53:00
6:53 AM,30.9,21.0,67,29.74,7.0,NE,25.3,34.5,N/A,Snow,Low Drifting Snow,50,2014-02-26 15:53:00
7:53 AM,30.0,19.9,66,29.72,10.0,NE,24.2,31.1,N/A,Snow,Low Drifting Snow,50,2014-02-26 16:53:00
8:51 AM,26.6,24.8,93,29.71,2.0,East,24.2,33.4,0.00,Snow,Light Snow,80,2014-02-26 17:51:00
8:53 AM,27.0,24.1,89,29.72,1.8,East,25.3,34.5,0.00,Snow,Light Snow,80,2014-02-26 17:53:00
9:03 AM,26.6,24.8,93,29.71,1.5,East,21.9,29.9,0.00,Snow,Light Snow,80,2014-02-26 18:03:00
9:32 AM,28.4,26.6,93,29.70,3.0,ENE,17.3,31.1,0.00,Snow,Light Snow,60,2014-02-26 18:32:00
9:39 AM,28.4,26.6,93,29.70,6.0,ENE,17.3,25.3,0.00,,Overcast,60,2014-02-26 18:39:00
9:53 AM,28.9,26.1,89,29.70,9.0,ENE,17.3,31.1,0.00,,Overcast,70,2014-02-26 18:53:00
10:53 AM,32.0,26.1,79,29.67,10.0,NE,17.3,24.2,N/A,,Overcast,40,2014-02-26 19:53:00
11:53 AM,35.1,23.0,61,29.65,10.0,ENE,16.1,24.2,N/A,,Overcast,60,2014-02-26 20:53:00
12:53 PM,35.1,21.9,59,29.65,10.0,East,15.0,-,N/A,,Mostly Cloudy,80,2014-02-26 21:53:00
1:53 PM,34.0,21.0,59,29.64,10.0,ENE,10.4,-,N/A,,Mostly Cloudy,70,2014-02-26 22:53:00
2:53 PM,35.1,19.0,52,29.62,10.0,East,17.3,-,N/A,,Mostly Cloudy,80,2014-02-26 23:53:00
3:53 PM,36.0,19.9,52,29.60,10.0,East,15.0,26.5,N/A,,Overcast,80,2014-02-27 00:53:00
4:53 PM,36.0,19.9,52,29.60,10.0,ENE,10.4,-,N/A,,Overcast,70,2014-02-27 01:53:00
5:53 PM,37.0,21.0,52,29.59,10.0,ENE,11.5,-,N/A,,Overcast,70,2014-02-27 02:53:00
6:53 PM,36.0,23.0,59,29.59,10.0,East,11.5,-,N/A,,Overcast,80,2014-02-27 03:53:00
7:51 PM,35.6,24.8,65,29.59,10.0,East,15.0,-,N/A,,Overcast,100,2014-02-27 04:51:00
7:53 PM,34.0,25.0,70,29.59,10.0,East,15.0,-,0.00,Rain,Light Rain,100,2014-02-27 04:53:00
8:24 PM,33.8,28.4,81,29.59,10.0,East,11.5,-,0.01,Rain,Light Rain,80,2014-02-27 05:24:00
8:53 PM,35.1,28.0,76,29.59,10.0,ENE,15.0,-,0.01,,Overcast,70,2014-02-27 05:53:00
9:53 PM,36.0,30.0,79,29.57,10.0,East,13.8,-,N/A,,Overcast,80,2014-02-27 06:53:00
10:53 PM,37.0,28.9,73,29.57,10.0,East,13.8,-,N/A,,Overcast,80,2014-02-27 07:53:00
11:53 PM,37.0,28.9,73,29.57,10.0,East,18.4,-,N/A,,Overcast,90,2014-02-27 08:53:00